Location: Bavegemberg
(50.9500°N, 3.8833°E)
Time: 13:38:29
(UTC+00:00)

Cosmos 1892 - Pass Details

Date: 23 May 2024
Orbit: 455 x 468 km, 82.5° (Epoch: 16 June)

Event Time Altitude Azimuth Distance (km) Brightness Sun altitude
Exits shadow 02:40:38 - 174° (S) 2,298 5.6 -8.3°
Reaches altitude 10° 02:42:20 10° 169° (SSE) 1,602 4.8 -8.1°
Maximum altitude 02:45:41 46° 95° (E) 630 3.5 -7.7°
Drops below altitude 10° 02:49:03 10° 21° (NNE) 1,610 6.5 -7.4°
Sets 02:51:11 0° 16° (NNE) 2,489 7.4 -7.1°
